Date String (YYYY-MM-DD hh:mm:ss) UTC,Instrument flags,absolute air pressure of the measurement (hPa),sample flow rate (lpm),inlet stack bypass flow (lpm),air temperature of the measurement (°C),ambient temperature measured by the external sensor (°C),aerosol sample conditioner tube jacket temperature (°C),OPC LED temperature (°C),internal box temperature (°C),relative humidity of the measurement (%),span deviation,mass concentration of particles derived from Lorenz-Mie calculation of OPC scattering (μg/m³),mass concentration of particles derived from Lorenz-Mie calculation of OPC scattering (μg/m³),mass concentration of particles derived from Lorenz-Mie calculation of OPC scattering (μg/m³)
DateTimeUTC,F1_M11,P_M11,Q1_M11,Q2_M11,T1_M11,T2_M11,T3_M11,T4_M11,T5_M11,U1_M11,ZSPAN_M11,X0_M11,X2_M11,X1_M11
2023-10-03 10:00:00,SystemResetWarning,0826.2,5.00,000.00,029.4,028.1,000.0,037.9,031.1,26.3,0000.0,0007.27,0004.10,0003.52
2023-10-03 10:01:00,SystemResetWarning,0826.2,5.01,000.00,029.4,028.1,000.0,037.9,031.1,26.1,0000.0,0007.39,0004.13,0003.53
2023-10-03 10:02:00,SystemResetWarning,0826.2,4.98,000.00,029.4,027.1,000.0,037.9,031.0,26.0,0000.0,0007.39,0004.15,0003.54
2023-10-03 10:03:00,SystemResetWarning,0826.2,5.00,000.00,029.3,025.0,000.0,037.8,030.8,25.9,0000.0,0007.34,0004.15,0003.55
2023-10-03 10:04:00,SystemResetWarning,0826.2,5.01,000.00,029.2,024.4,000.0,037.7,030.6,26.0,0000.0,0007.40,0004.16,0003.55
2023-10-03 10:05:00,SystemResetWarning,0826.2,5.00,000.00,029.0,024.5,000.0,037.7,030.3,26.3,0000.0,0007.33,0004.16,0003.56
2023-10-03 10:06:00,SystemResetWarning,0826.2,4.99,000.00,028.9,024.9,000.0,037.6,030.2,26.4,0000.0,0007.32,0004.17,0003.56
2023-10-03 10:07:00,SystemResetWarning,0826.2,5.00,000.00,028.9,025.3,000.0,037.6,030.2,26.6,0000.0,0007.29,0004.16,0003.55
2023-10-03 10:08:00,SystemResetWarning,0826.2,5.00,000.00,028.8,025.7,000.0,037.6,030.3,26.7,0000.0,0007.28,0004.13,0003.55
2023-10-03 10:09:00,SystemResetWarning,0826.2,5.00,000.00,028.8,026.1,000.0,037.5,030.3,26.7,0000.0,0007.87,0004.11,0003.55
2023-10-03 10:10:00,SystemResetWarning,0826.2,4.99,000.00,028.8,026.3,000.0,037.5,030.3,26.7,0000.0,0008.24,0004.13,0003.57
2023-10-03 10:11:00,SystemResetWarning,0826.2,4.99,000.00,028.8,026.6,000.0,037.5,030.3,26.8,0000.0,0008.29,0004.16,0003.57
2023-10-03 10:12:00,SystemResetWarning,0826.2,5.00,000.00,028.8,026.8,000.0,037.4,030.4,26.9,0000.0,0008.52,0004.19,0003.58
2023-10-03 10:13:00,SystemResetWarning,0826.2,5.01,000.00,028.8,026.9,000.0,037.4,030.4,26.9,0000.0,0008.97,0004.17,0003.59
2023-10-03 10:14:00,SystemResetWarning,0826.2,5.01,000.00,028.8,027.0,000.0,037.4,030.4,26.7,0000.0,0008.96,0004.16,0003.59
2023-10-03 10:15:00,SystemResetWarning,0826.2,5.01,000.00,028.8,027.1,000.0,037.4,030.5,26.6,0000.0,0008.93,0004.17,0003.60
2023-10-03 10:16:00,SystemResetWarning,0826.2,5.00,000.00,028.8,027.2,000.0,037.4,030.5,26.7,0000.0,0008.99,0004.19,0003.60
2023-10-03 10:17:00,SystemResetWarning,0826.3,4.99,000.00,028.8,027.3,000.0,037.4,030.5,26.7,0000.0,0008.99,0004.20,0003.60
2023-10-03 10:18:00,SystemResetWarning,0826.2,5.00,000.00,028.8,027.4,000.0,037.4,030.5,26.7,0000.0,0009.01,0004.22,0003.62
2023-10-03 10:19:00,SystemResetWarning,0826.2,5.00,000.00,028.8,027.4,000.0,037.3,030.5,26.9,0000.0,0009.00,0004.26,0003.63
2023-10-03 10:20:00,SystemResetWarning,0826.2,5.00,000.00,028.8,027.5,000.0,037.3,030.6,27.0,0000.0,0008.48,0004.28,0003.64
2023-10-03 10:21:00,SystemResetWarning,0826.2,4.99,000.00,028.9,027.5,000.0,037.3,030.5,27.1,0000.0,0008.05,0004.25,0003.63
2023-10-03 10:22:00,SystemResetWarning,0826.2,5.00,000.00,028.9,027.5,000.0,037.3,030.6,27.2,0000.0,0007.93,0004.18,0003.60
2023-10-03 10:23:00,SystemResetWarning,0826.2,5.01,000.00,028.9,027.6,000.0,037.4,030.6,27.2,0000.0,0007.45,0004.05,0003.56
2023-10-03 10:24:00,SystemResetWarning,0826.2,5.00,000.00,028.9,027.6,000.0,037.4,030.6,27.3,0000.0,0006.52,0004.01,0003.53
2023-10-03 10:25:00,SystemResetWarning,0826.1,5.00,000.00,028.9,027.6,000.0,037.4,030.7,27.3,0000.0,0006.70,0003.99,0003.50
2023-10-03 10:26:00,SystemResetWarning,0826.1,4.99,000.00,028.9,027.6,000.0,037.4,030.7,27.3,0000.0,0007.38,0003.99,0003.49
2023-10-03 10:27:00,SystemResetWarning,0826.0,4.99,000.00,028.9,027.7,000.0,037.4,030.7,27.2,0000.0,0007.87,0004.00,0003.49
2023-10-03 10:28:00,SystemResetWarning,0826.0,4.99,000.00,029.0,027.7,000.0,037.4,030.7,27.0,0000.0,0007.86,0003.99,0003.50
2023-10-03 10:29:00,SystemResetWarning,0825.9,5.00,000.00,029.0,027.7,000.0,037.4,030.7,27.0,0000.0,0007.84,0003.96,0003.48
2023-10-03 10:30:00,SystemResetWarning,0825.9,5.01,000.00,029.0,027.7,000.0,037.4,030.7,26.9,0000.0,0007.80,0003.94,0003.48
2023-10-03 10:31:00,SystemResetWarning,0825.9,5.00,000.00,029.0,027.7,000.0,037.4,030.7,26.9,0000.0,0007.80,0003.95,0003.48
2023-10-03 10:32:00,SystemResetWarning,0825.9,5.00,000.00,029.0,027.8,000.0,037.4,030.8,26.8,0000.0,0007.82,0003.96,0003.50
2023-10-03 10:33:00,SystemResetWarning,0826.0,5.00,000.00,029.0,027.8,000.0,037.4,030.8,26.6,0000.0,0007.88,0004.00,0003.52
2023-10-03 10:34:00,SystemResetWarning,0826.0,5.00,000.00,029.0,027.8,000.0,037.4,030.8,26.6,0000.0,0008.03,0004.08,0003.57
2023-10-03 10:35:00,SystemResetWarning,0826.0,4.99,000.00,029.1,027.8,000.0,037.5,030.8,26.5,0000.0,0008.17,0004.17,0003.63
2023-10-03 10:36:00,SystemResetWarning,0826.1,5.00,000.00,029.1,027.8,000.0,037.5,030.8,26.5,0000.0,0008.20,0004.23,0003.68
2023-10-03 10:37:00,SystemResetWarning,0826.1,5.00,000.00,029.1,027.9,000.0,037.5,030.8,26.5,0000.0,0008.07,0004.30,0003.72
2023-10-03 10:38:00,SystemResetWarning,0826.2,5.00,000.00,029.1,027.9,000.0,037.5,030.9,26.7,0000.0,0007.42,0004.30,0003.74
2023-10-03 10:39:00,SystemResetWarning,0826.2,5.01,000.00,029.1,027.9,000.0,037.5,030.9,26.6,0000.0,0007.52,0004.34,0003.77
2023-10-03 10:40:00,SystemResetWarning,0826.2,5.00,000.00,029.1,027.9,000.0,037.5,030.9,26.6,0000.0,0007.96,0004.38,0003.80
2023-10-03 10:41:00,SystemResetWarning,0826.2,5.00,000.00,029.1,027.9,000.0,037.5,030.9,26.6,0000.0,0008.34,0004.44,0003.83
2023-10-03 10:42:00,SystemResetWarning,0826.3,5.00,000.00,029.2,027.9,000.0,037.5,030.9,26.6,0000.0,0008.56,0004.48,0003.85
2023-10-03 10:43:00,SystemResetWarning,0826.3,5.00,000.00,029.2,027.9,000.0,037.6,030.9,26.6,0000.0,0008.72,0004.55,0003.86
2023-10-03 10:44:00,SystemResetWarning,0826.4,5.00,000.00,029.2,027.9,000.0,037.6,030.9,26.5,0000.0,0008.79,0004.59,0003.86
2023-10-03 10:45:00,SystemResetWarning,0826.4,4.99,000.00,029.2,027.9,000.0,037.6,030.9,26.4,0000.0,0009.01,0004.63,0003.86
2023-10-03 10:46:00,SystemResetWarning,0826.5,5.00,000.00,029.2,027.9,000.0,037.6,030.9,26.4,0000.0,0009.21,0004.67,0003.87
2023-10-03 10:47:00,SystemResetWarning,0826.6,5.00,000.00,029.2,027.9,000.0,037.6,030.9,26.3,0000.0,0009.15,0004.64,0003.87
2023-10-03 10:48:00,SystemResetWarning,0826.6,4.99,000.00,029.2,027.9,000.0,037.6,030.9,26.2,0000.0,0009.13,0004.63,0003.87
2023-10-03 10:49:00,SystemResetWarning,0826.6,5.01,000.00,029.2,027.9,000.0,037.6,030.9,26.2,0000.0,0009.07,0004.62,0003.85
2023-10-03 10:50:00,SystemResetWarning,0826.6,5.00,000.00,029.2,027.9,000.0,037.6,030.9,26.2,0000.0,0009.07,0004.60,0003.84
2023-10-03 10:51:00,SystemResetWarning,0826.6,5.01,000.00,029.2,027.9,000.0,037.7,030.9,26.2,0000.0,0008.87,0004.61,0003.82
2023-10-03 10:52:00,SystemResetWarning,0826.7,5.00,000.00,029.2,027.9,000.0,037.7,030.9,26.1,0000.0,0008.78,0004.61,0003.81
2023-10-03 10:53:00,SystemResetWarning,0826.8,5.00,000.00,029.3,027.9,000.0,037.7,031.0,26.1,0000.0,0008.53,0004.60,0003.80
2023-10-03 10:54:00,SystemResetWarning,0826.8,5.00,000.00,029.3,027.9,000.0,037.7,031.0,26.3,0000.0,0008.41,0004.57,0003.80
2023-10-03 10:55:00,SystemResetWarning,0826.8,4.99,000.00,029.3,027.9,000.0,037.7,031.0,26.2,0000.0,0008.35,0004.53,0003.79
2023-10-03 10:56:00,SystemResetWarning,0826.8,5.00,000.00,029.3,027.9,000.0,037.7,030.9,26.1,0000.0,0008.46,0004.56,0003.79
2023-10-03 10:57:00,SystemResetWarning,0826.8,5.00,000.00,029.3,027.9,000.0,037.7,030.9,25.8,0000.0,0008.25,0004.52,0003.78
2023-10-03 10:58:00,SystemResetWarning,0826.8,5.00,000.00,029.3,027.9,000.0,037.7,031.0,25.8,0000.0,0008.24,0004.51,0003.77
2023-10-03 10:59:00,SystemResetWarning,0826.8,5.01,000.00,029.3,027.9,000.0,037.7,031.0,25.8,0000.0,0008.31,0004.51,0003.76
